Overview Statistics Trail Chart Weather Telemetry Raw packets
 

This is the latest recevied weather packets stored in our database for station/object K6POO-1. If no packets are shown the sender has not sent any weather packets the latest 10 day(s).

<< 78 79 80 81 82 83 84 >>
Time Temp. Humidity Pressure Rain* Wind** Luminosity Snow
1788123927 20° C 67% 1013.9 hPa 0 mm - 858 W/m² -
1788123621 19.44° C 67% 1014.1 hPa 0 mm - 866 W/m² -
1788123319 18.89° C 69% 1013.9 hPa 0 mm - 874 W/m² -
1788123015 18.89° C 69% 1014 hPa 0 mm - 876 W/m² -
1788122713 18.89° C 70% 1014.1 hPa 0 mm - 886 W/m² -
1788122408 18.89° C 70% 1014.2 hPa 0 mm - 890 W/m² -
1788122104 18.33° C 71% 1014.1 hPa 0 mm - 898 W/m² -
1788121803 18.33° C 71% 1014.1 hPa 0 mm - 903 W/m² -
1788121497 17.78° C 72% 1014.3 hPa 0 mm - 907 W/m² -
1788121194 17.78° C 72% 1014.4 hPa 0 mm - 910 W/m² -
1788120892 17.78° C 73% 1014.2 hPa 0 mm - 916 W/m² -
1788120588 17.78° C 73% 1014.2 hPa 0 mm - 921 W/m² -
1788120283 17.78° C 73% 1014.4 hPa 0 mm - 923 W/m² -
1788119983 17.78° C 73% 1014.5 hPa 0 mm - 924 W/m² -
1788119678 17.22° C 76% 1014.7 hPa 0 mm - 926 W/m² -
1788119376 17.22° C 75% 1014.6 hPa 0 mm - 930 W/m² -
1788119076 17.22° C 75% 1014.5 hPa 0 mm - 929 W/m² -
1788118776 17.22° C 77% 1014.7 hPa 0 mm - 931 W/m² -
1788118475 16.67° C 78% 1014.9 hPa 0 mm - 932 W/m² -
1788118171 16.67° C 77% 1014.9 hPa 0 mm - 930 W/m² -
1788117866 16.67° C 78% 1014.7 hPa 0 mm - 950 W/m² -
1788117561 16.67° C 78% 1015 hPa 0 mm - 966 W/m² -
1788117260 16.67° C 78% 1015 hPa 0 mm - 957 W/m² -
1788116957 16.11° C 79% 1014.8 hPa 0 mm - 957 W/m² -
1788116651 16.67° C 79% 1015 hPa 0 mm - 946 W/m² -

* Rain latest hour (hover to see other rain measurements)
** Current wind speed in m/s (hover to see current wind gust speed)